Simultaneous Nadir Overpasses (SNOs) Predictions

Prediction of SNOs between METOP-B and TERRA Satellite Orbit:

Table of predicted SNOs for the next 14.0 days since TLE Epoch: 7/26/2014
Index Date (METOP-B) Time (METOP-B) Lat,Lon (METOP-B) SZA (METOP-B ) Date (TERRA) Time (TERRA) Lat,Lon (TERRA) SZA (TERRA ) Distance(km) Time Diff (sec)
1 07/26/2014 21:55:23 -81.33, 78.78 115.22 07/26/2014 21:55:28 -81.33, 78.92 115.20 2.37 5
2 07/26/2014 22:46:02 81.34,-113.21 64.88 07/26/2014 22:44:54 81.34,-113.26 64.84 0.84 68
3 07/29/2014 17:29:45 -81.33, 145.40 114.54 07/29/2014 17:29:47 -81.34, 145.56 114.52 2.87 2
4 07/29/2014 18:20:25 81.33, -47.05 65.50 07/29/2014 18:19:14 81.33, -47.03 65.46 0.84 71
5 08/01/2014 12:13:27 81.33, 44.20 66.11 08/01/2014 12:14:40 81.34, 44.29 66.16 1.72 73
6 08/
